Showing default

CALSPHERE 4(A), 1520

Orbit data source: Space-Track

CALSPHERE 4(A), 1520 is a payload satellite owned by NRL (US) in LEO that was launched on Fri, 13 Aug 1965 UTC via a THOR ABLESTAR launch vehicle from the Air Force Western Test Range (AFWTR). Payload-class satellites include a variety of spacecraft equipped with specific instruments for various scientific and technological missions. These include communications satellites like Starlink; space stations such as the ISS; scientific satellites like the Hubble; Earth observation satellites from companies like Planet Labs, Umbra, and HawkEye 360; GPS; miniature CubeSats for education and research; and military/defense satellites.

Loading next visibility...
Identifier
1520, 1965-065H
Orbit
LEO
Country
Flag of USUS
Related business
Manufacturer
NRL
Mission
Operational Defense Calibration
Bus & Motor
NRL 14", Unknown motor
Mass
4 kg wet, 4 kg dry
Launch date (UTC)
1965-08-13 (60 years ago)
Launch vehicle
THOR ABLESTAR
Launch site
Air Force Western Test Range (AFWTR)
Object type
Payload
Rocket body
Debris
Shape & HBR
Sphere, 0.2 m
Radar Cross Section
0.126 m², Small (<0.1 m²)

Expand to show TLE details & history
Last TLE update: 6 hours ago

TLE from 6 hours ago
0 CALSPHERE 4(A)
1 01520U 65065H   25242.90305752  .00000107  00000-0  18915-3 0  9991
2 01520  89.9177 125.1386 0068385 201.6415 169.9658 13.36212220923949
Epoch: 2025-08-30T21:40Z
TLE epoch observation values (Epoch: 2025-08-30T21:40:24.169Z)
Latitude
11.69762°
Longitude
-179.27583°
Altitude
1,176.136 km
Speed
7.242 km/s
True Right ascension
08h 20m 37s
True Declination
11° 37' 60"
Sunlit
Object was in daylight at epoch
Visualization orbit readout
Latitude
Unknown
Longitude
Unknown
Altitude
Unknown
Speed
Unknown
Apparent Right ascension
Unknown
Apparent Declination
Unknown
Sunlit
N/A
Visualization observer readout
Local Sidereal Time
19:02:05
Azimuth
Unknown
Elevation
Unknown
Doppler factor
Unknown
Orbital elements
Apogee altitude
1,171.771 km
Perigee altitude
1,069.213 km
Semi-major axis
7,498.629 km
Eccentricity
0.00684
Inclination
89.9177°
RAAN
125.1386°
Arg. of periapsis
201.6415°
True anomaly
170.1012°
Mean anomaly
169.9658°
Eccentric anomaly
170.03361°
Mean motion
3.34249 °/min
Orbital period
107.7 mins
BSTAR
0.00018915
Loading maneuver chart data...
Computing Atmospheric mass density...
Loading historical data...
Loading historical data...
Loading historical data...
Loading historical data...
Loading historical data...
Loading historical data...
Loading historical data...

Documentation

Showing up to 5 results
|